Vorticity
9 5 5 2 5 7 9 5 8 6 5 14 12 10 7 12 11 6 5 4 4 6 4 4 3 5 5 6 9 7 5 2 6 13 14 8 8 9 -16 14 8 8 8
6 -0 4 3 5 5 2 3 2 5 5 2 11 8 9 12 8 9 7 4 3 5 5 3 5 6 5 5 9 6 5 5 10 9 14 11 10 4 18 10 11 7 6
5 6 5 4 6 5 3 5 6 4 4 6 5 7 9 9 12 7 9 6 8 6 6 7 3 5 4 3 8 5 6 10 2 9 12 6 11 -12 0 3 25 44 34
8 6 7 5 5 5 4 3 6 5 4 7 8 7 5 7 13 8 8 11 10 3 5 4 6 3 5 3 8 6 3 6 8 11 18 14 8 8 12 12 8 15 10
5 6 5 5 4 5 5 5 2 3 1 5 6 12 7 6 10 14 8 8 6 4 6 4 5 5 6 5 7 8 6 8 9 13 11 15 7 17 8 20 -3 19 -1
4 4 5 4 4 4 3 4 4 3 3 4 5 6 11 6 10 12 11 9 5 4 2 3 4 4 6 5 6 8 8 11 14 7 12 13 14 -2 7 1 21 23 12
5 5 4 4 3 4 3 3 2 3 4 2 3 3 9 8 5 10 15 10 6 4 3 3 4 4 6 5 7 7 8 10 -0 21 6 9 16 10 27 19 6 1 6
5 5 4 2 3 3 2 2 2 2 3 4 2 3 7 9 4 8 10 13 6 5 3 4 6 4 5 9 6 7 10 7 3 12 27 13 2 -13 -15 -7 7 1 6
2 3 4 3 3 3 2 2 2 3 3 3 4 3 4 9 6 4 10 9 9 5 4 4 4 6 5 6 6 9 2 7 12 17 27 -22 27 5 2 2 -2 5 20
3 3 4 2 3 3 2 2 3 3 4 2 4 4 3 3 11 3 5 11 6 5 5 3 4 4 7 9 4 7 5 7 8 9 -10 2 18 4 7 1 10 10 1
2 3 4 6 5 4 4 3 3 3 4 4 3 5 4 6 5 9 4 6 10 7 3 2 3 3 7 6 7 4 3 4 6 2 10 13 11 -4 2 4 15 9 6
2 6 3 7 7 9 9 6 5 4 3 5 5 4 6 5 6 5 8 3 6 9 8 3 2 4 6 6 6 8 0 5 12 4 43 -1 9 10 4 10 12 9 6
7 5 7 4 6 5 4 8 6 5 4 4 5 6 6 6 3 6 7 8 3 5 7 8 6 4 4 6 7 6 3 7 3 -31 16 16 1 10 11 8 15 6 9
3 3 7 10 11 11 9 8 6 9 6 6 5 6 5 5 8 4 5 8 5 4 6 6 6 5 5 7 9 5 5 9 7 8 -1 -34 10 4 11 5 8 10 11
13 18 19 16 18 17 16 15 12 10 6 7 6 4 5 7 4 6 3 3 7 6 4 7 5 5 7 7 5 6 8 10 6 4 8 16 -8 6 9 17 17 20 6
10 9 11 11 9 10 6 5 7 8 11 7 2 6 4 4 4 6 7 3 3 8 4 6 8 3 4 10 7 6 5 10 5 6 8 7 9 10 9 12 13 3 3
9 6 6 6 5 3 6 6 6 5 5 2 8 3 5 5 4 2 7 6 3 1 2 8 5 6 2 10 10 5 5 6 6 9 6 5 9 2 5 0 6 7 19
7 8 7 6 6 8 7 8 8 5 6 6 7 5 4 5 5 4 2 4 8 3 3 -1 9 8 2 5 15 7 6 3 8 6 7 8 4 5 14 7 3 16 8
8 9 11 10 8 5 6 5 3 9 10 7 8 7 7 6 5 4 4 3 9 3 4 4 4 6 6 2 11 10 4 5 7 10 9 9 7 7 12 14 16 13 27
10 10 8 8 6 6 7 4 5 4 2 4 2 6 4 8 8 4 7 5 3 8 5 1 3 6 4 4 4 12 9 4 7 6 8 8 7 8 8 10 8 12 9
5 5 6 7 5 8 7 10 9 10 9 12 8 7 -2 -2 5 5 2 4 5 3 9 3 4 3 7 5 1 6 13 7 5 5 7 8 6 9 10 12 11 13 6
9 8 3 3 8 2 3 5 9 6 11 8 10 12 14 4 -6 1 4 3 5 2 2 6 1 4 2 5 6 0 8 13 8 6 6 5 6 8 8 6 6 9 13
6 6 3 3 5 6 7 4 9 16 19 18 18 16 14 6 14 -0 1 2 3 2 6 6 3 4 4 4 6 3 4 8 13 6 4 5 6 4 6 6 8 8 7
4 3 5 6 8 -6 30 50 47 40 31 16 39 35 31 22 19 18 2 2 8 -3 0 6 4 3 5 2 8 6 3 3 11 9 6 3 4 4 4 4 4 8 8
4 7 7 3 17 68 33 17 11 -9 18 30 20 11 21 23 30 4 16 -10 44 -44 9 -3 -1 5 0 5 7 8 4 2 7 10 8 6 4 5 6 5 4 4 7
8 3 3 30 24 2 9 25 34 15 14 14 19 17 19 25 11 56 0 8 -43 37 17 0 5 -1 7 8 7 7 8 3 6 7 9 9 5 3 5 5 7 7 6
Height
5876 5874 5874 5872 5871 5870 5869 5867 5865 5862 5860 5858 5857 5856 5855 5854 5853 5854 5854 5854 5853 5853 5851 5849 5848 5846 5844 5842 5841 5840 5839 5837 5835 5834 5834 5835 5835 5835 5836 5835 5834 5834 5834
5872 5871 5871 5869 5869 5868 5867 5866 5864 5862 5859 5856 5854 5853 5852 5851 5849 5849 5851 5851 5851 5850 5849 5848 5846 5844 5842 5840 5838 5837 5835 5833 5831 5831 5830 5831 5832 5833 5834 5834 5833 5833 5831
5869 5868 5868 5867 5866 5865 5865 5865 5863 5861 5858 5855 5853 5851 5850 5848 5847 5846 5846 5847 5848 5847 5847 5846 5844 5841 5840 5837 5836 5834 5832 5831 5830 5829 5828 5828 5829 5831 5831 5831 5829 5827 5826
5866 5865 5865 5864 5863 5863 5863 5862 5861 5859 5857 5854 5852 5850 5847 5846 5845 5844 5844 5844 5845 5844 5845 5844 5842 5839 5836 5834 5832 5831 5830 5829 5826 5825 5824 5824 5827 5828 5828 5829 5828 5828 5827
5862 5861 5861 5861 5860 5859 5859 5858 5857 5856 5854 5851 5850 5848 5846 5844 5843 5843 5842 5842 5843 5843 5844 5842 5839 5837 5834 5832 5829 5829 5827 5826 5825 5821 5821 5822 5823 5825 5826 5827 5827 5827 5828
5858 5858 5857 5857 5856 5855 5855 5855 5854 5852 5851 5849 5847 5846 5844 5842 5842 5842 5841 5841 5840 5841 5841 5839 5837 5835 5832 5829 5826 5825 5824 5826 5822 5819 5819 5820 5821 5823 5823 5824 5826 5826 5827
5853 5854 5853 5853 5852 5851 5851 5851 5850 5849 5848 5847 5845 5843 5842 5841 5839 5839 5840 5839 5839 5839 5838 5837 5835 5833 5830 5828 5824 5823 5823 5823 5821 5819 5818 5817 5820 5822 5823 5825 5826 5824 5826
5849 5848 5848 5846 5847 5846 5846 5846 5846 5845 5844 5843 5843 5841 5839 5837 5837 5836 5837 5838 5837 5837 5836 5835 5833 5831 5828 5826 5821 5820 5822 5820 5819 5817 5815 5817 5819 5821 5823 5824 5824 5824 5826
5842 5843 5842 5841 5841 5841 5840 5840 5840 5840 5840 5839 5839 5838 5836 5834 5833 5834 5833 5834 5835 5835 5834 5833 5831 5829 5826 5824 5820 5817 5819 5818 5817 5816 5816 5817 5816 5818 5820 5821 5820 5821 5824
5837 5835 5835 5835 5834 5834 5834 5834 5834 5835 5835 5834 5834 5833 5833 5831 5830 5829 5830 5831 5830 5831 5832 5831 5829 5827 5825 5822 5818 5816 5817 5819 5817 5816 5817 5817 5816 5817 5819 5819 5817 5820 5823
5831 5830 5828 5828 5827 5827 5827 5827 5827 5827 5828 5828 5828 5828 5827 5827 5826 5825 5826 5826 5827 5826 5827 5828 5827 5825 5823 5820 5817 5815 5815 5817 5815 5814 5816 5815 5816 5816 5817 5817 5818 5819 5821
5823 5823 5823 5822 5820 5819 5818 5819 5819 5819 5819 5821 5821 5822 5822 5821 5822 5822 5821 5821 5821 5822 5822 5823 5823 5822 5820 5818 5815 5814 5812 5813 5810 5808 5809 5809 5812 5812 5814 5814 5815 5817 5818
5813 5813 5813 5814 5814 5813 5812 5811 5812 5812 5812 5812 5814 5814 5816 5816 5816 5816 5817 5817 5817 5817 5818 5818 5818 5819 5817 5816 5813 5812 5809 5809 5808 5806 5804 5806 5804 5808 5810 5811 5812 5814 5815
5807 5808 5807 5807 5808 5807 5806 5805 5804 5804 5805 5805 5805 5806 5807 5809 5810 5811 5811 5812 5812 5812 5812 5813 5814 5814 5814 5813 5811 5809 5807 5807 5804 5806 5807 5803 5806 5805 5807 5809 5809 5810 5812
5802 5803 5802 5800 5799 5799 5799 5798 5796 5798 5798 5798 5798 5799 5800 5801 5802 5804 5805 5806 5807 5807 5808 5808 5807 5809 5810 5810 5810 5807 5805 5805 5803 5801 5803 5802 5804 5805 5805 5806 5805 5807 5809
5796 5793 5792 5791 5788 5787 5787 5788 5788 5788 5789 5790 5791 5792 5792 5793 5794 5796 5798 5799 5800 5802 5803 5803 5803 5803 5804 5806 5806 5804 5803 5804 5802 5802 5802 5802 5803 5802 5804 5804 5804 5805 5807
5785 5783 5781 5780 5779 5778 5777 5778 5780 5779 5779 5780 5782 5783 5784 5784 5785 5787 5790 5792 5794 5795 5796 5798 5798 5797 5798 5801 5802 5800 5799 5801 5799 5799 5799 5799 5800 5800 5801 5802 5802 5803 5804
5777 5777 5775 5773 5771 5769 5768 5767 5767 5769 5769 5769 5771 5772 5772 5775 5776 5777 5779 5783 5786 5787 5789 5792 5792 5792 5792 5794 5797 5796 5794 5795 5795 5796 5795 5795 5796 5797 5797 5798 5798 5799 5800
5767 5765 5764 5762 5761 5760 5759 5757 5756 5756 5757 5757 5757 5760 5762 5761 5764 5766 5769 5772 5776 5779 5781 5784 5786 5786 5786 5787 5789 5791 5792 5789 5791 5791 5791 5791 5792 5791 5792 5794 5795 5796 5796
5757 5754 5752 5750 5748 5747 5746 5745 5745 5743 5743 5743 5746 5746 5748 5750 5751 5753 5758 5763 5764 5768 5772 5774 5777 5779 5779 5780 5782 5784 5787 5787 5787 5787 5787 5788 5789 5789 5789 5789 5790 5791 5792
5748 5746 5743 5740 5736 5732 5729 5727 5726 5727 5726 5727 5727 5731 5733 5737 5739 5740 5746 5751 5753 5757 5761 5764 5767 5770 5772 5773 5775 5777 5780 5782 5781 5783 5783 5784 5784 5784 5784 5785 5786 5786 5787
5737 5734 5730 5724 5719 5712 5707 5702 5698 5698 5699 5702 5705 5709 5713 5718 5723 5726 5731 5738 5741 5745 5750 5754 5756 5760 5763 5766 5767 5769 5773 5776 5776 5777 5778 5779 5779 5780 5780 5780 5780 5780 5781
5723 5718 5713 5705 5698 5690 5682 5674 5668 5666 5668 5670 5674 5679 5684 5691 5702 5707 5715 5718 5723 5728 5736 5744 5747 5749 5753 5756 5760 5762 5764 5768 5771 5772 5772 5773 5774 5775 5775 5775 5776 5776 5776
5709 5703 5695 5686 5676 5667 5656 5645 5639 5638 5639 5639 5642 5647 5655 5662 5674 5684 5691 5700 5703 5712 5720 5731 5738 5739 5742 5747 5751 5754 5756 5760 5764 5766 5767 5767 5769 5770 5770 5770 5771 5771 5772
5696 5688 5678 5668 5653 5641 5631 5624 5621 5619 5618 5618 5618 5622 5630 5637 5644 5654 5665 5675 5681 5691 5705 5714 5723 5728 5732 5736 5741 5743 5747 5750 5755 5759 5761 5762 5763 5764 5765 5765 5766 5767 5767
5683 5672 5660 5648 5636 5627 5620 5610 5602 5597 5593 5594 5595 5598 5607 5612 5620 5627 5638 5649 5660 5658 5681 5697 5709 5716 5722 5726 5729 5734 5737 5742 5748 5751 5753 5756 5757 5758 5759 5760 5761 5761 5762